RYR4KA LPPT-LPPR

Flight info

Callsign RYR4KA
Flight time 0h 34m
Altitude 20000
Route IXIDA DCT ABLEG
Aircraft B38M/M-SDE1FGHILORVWXY/HB1

Departure

Time 2026-05-04 10:10
Airport Lisbon Humberto Delgado Airport (LPPT)

Arrival

Time 2026-05-04 10:44
Airport Francisco de Sá Carneiro Airport (LPPR)
Time Latitude Longitude Altitude Speed Heading
2026-05-04 09:51 38.76456 -9.13781 357 ft 0 kts 168°
2026-05-04 10:04 38.76481 -9.13787 350 ft 4 kts 174°
2026-05-04 10:04 38.76499 -9.13788 357 ft 4 kts 183°
2026-05-04 10:04 38.76524 -9.13781 358 ft 4 kts 212°
2026-05-04 10:04 38.76535 -9.13763 356 ft 0 kts 258°
2026-05-04 10:08 38.76523 -9.13909 350 ft 7 kts 311°
2026-05-04 10:08 38.76569 -9.13953 349 ft 10 kts 299°
2026-05-04 10:08 38.76561 -9.14052 350 ft 13 kts 258°
2026-05-04 10:08 38.76571 -9.14170 345 ft 15 kts 294°
2026-05-04 10:09 38.76620 -9.14314 335 ft 20 kts 293°
2026-05-04 10:09 38.76656 -9.14385 338 ft 1 kts 359°
2026-05-04 10:09 38.76662 -9.14381 337 ft 1 kts 24°
2026-05-04 10:09 38.76683 -9.14369 335 ft 9 kts 24°
2026-05-04 10:10 38.76972 -9.14214 357 ft 83 kts 22°
2026-05-04 10:10 38.77717 -9.13816 367 ft 147 kts 22°
2026-05-04 10:10 38.78733 -9.13233 750 ft 169 kts 24°
2026-05-04 10:10 38.79822 -9.12575 1470 ft 179 kts 22°
2026-05-04 10:11 38.80914 -9.11959 2537 ft 172 kts 20°
2026-05-04 10:11 38.82076 -9.11297 3131 ft 193 kts 24°
2026-05-04 10:11 38.83250 -9.10257 3666 ft 219 kts 41°
2026-05-04 10:11 38.84202 -9.08622 4222 ft 242 kts 52°
2026-05-04 10:12 38.85187 -9.06840 5238 ft 243 kts 52°
2026-05-04 10:12 38.86181 -9.05047 6216 ft 252 kts 52°
2026-05-04 10:12 38.87229 -9.03149 6907 ft 269 kts 52°
2026-05-04 10:12 38.88339 -9.01135 7762 ft 277 kts 51°
2026-05-04 10:13 38.89627 -8.99285 8736 ft 280 kts 41°
2026-05-04 10:13 38.91029 -8.97543 9664 ft 286 kts 41°
2026-05-04 10:13 38.92467 -8.95737 10506 ft 294 kts 41°
2026-05-04 10:13 38.93976 -8.93835 10987 ft 314 kts 41°
2026-05-04 10:14 38.95593 -8.91786 11420 ft 333 kts 41°
2026-05-04 10:14 38.97255 -8.89676 11988 ft 347 kts 41°
2026-05-04 10:16 39.09867 -8.73607 17112 ft 378 kts 41°
2026-05-04 10:16 39.11718 -8.71240 17784 ft 382 kts 41°
2026-05-04 10:16 39.13628 -8.68798 18403 ft 388 kts 41°
2026-05-04 10:16 39.15558 -8.66329 19001 ft 391 kts 41°
2026-05-04 10:17 39.17502 -8.63838 19583 ft 394 kts 41°
2026-05-04 10:17 39.19442 -8.61351 19993 ft 400 kts 41°
2026-05-04 10:19 39.33516 -8.43242 20100 ft 409 kts 41°
2026-05-04 10:19 39.35531 -8.40640 20103 ft 410 kts 41°
2026-05-04 10:19 39.37530 -8.38057 20104 ft 410 kts 41°
2026-05-04 10:19 39.39545 -8.35452 20098 ft 409 kts 41°
2026-05-04 10:20 39.41641 -8.32966 20090 ft 405 kts 31°
2026-05-04 10:20 39.44154 -8.31462 20100 ft 395 kts 10°
2026-05-04 10:20 39.46853 -8.30998 20097 ft 389 kts 355°
2026-05-04 10:20 39.49500 -8.31306 20103 ft 386 kts 351°
2026-05-04 10:21 39.52189 -8.31607 20114 ft 387 kts 351°
2026-05-04 10:21 39.54887 -8.31884 20095 ft 386 kts 352°
2026-05-04 10:21 39.57538 -8.32143 20099 ft 387 kts 352°
2026-05-04 10:21 39.60231 -8.32400 20091 ft 386 kts 352°
2026-05-04 10:22 39.65578 -8.32905 20091 ft 386 kts 352°
2026-05-04 10:22 39.68270 -8.33159 20094 ft 386 kts 352°
2026-05-04 10:22 39.70936 -8.33410 20091 ft 386 kts 352°
2026-05-04 10:23 39.73634 -8.33664 20104 ft 386 kts 352°
2026-05-04 10:23 39.76285 -8.33915 20096 ft 385 kts 352°
2026-05-04 10:25 39.95007 -8.35688 20102 ft 385 kts 352°
2026-05-04 10:25 39.97684 -8.35942 20110 ft 386 kts 352°
2026-05-04 10:25 40.00367 -8.36198 20104 ft 386 kts 352°
2026-05-04 10:25 40.03061 -8.36454 20103 ft 386 kts 352°
2026-05-04 10:26 40.05689 -8.36705 20113 ft 376 kts 352°
2026-05-04 10:26 40.08261 -8.36960 20126 ft 360 kts 352°
2026-05-04 10:26 40.10696 -8.37200 19969 ft 351 kts 352°
2026-05-04 10:26 40.13117 -8.37434 19633 ft 347 kts 352°
2026-05-04 10:27 40.15518 -8.37665 19293 ft 344 kts 352°
2026-05-04 10:27 40.17896 -8.37893 18951 ft 341 kts 352°
2026-05-04 10:27 40.20201 -8.38114 18600 ft 340 kts 352°
2026-05-04 10:27 40.22599 -8.38342 18196 ft 339 kts 352°
2026-05-04 10:28 40.24948 -8.38565 17795 ft 337 kts 352°
2026-05-04 10:28 40.27283 -8.38789 17420 ft 334 kts 352°
2026-05-04 10:28 40.29584 -8.39009 17059 ft 331 kts 352°
2026-05-04 10:28 40.31878 -8.39230 16695 ft 328 kts 352°
2026-05-04 10:29 40.34130 -8.39445 16348 ft 326 kts 352°
2026-05-04 10:29 40.36390 -8.39661 15997 ft 323 kts 352°
2026-05-04 10:29 40.38618 -8.39874 15653 ft 320 kts 352°
2026-05-04 10:29 40.40833 -8.40087 15318 ft 318 kts 352°
2026-05-04 10:30 40.43042 -8.40298 14969 ft 320 kts 352°
2026-05-04 10:30 40.45256 -8.40510 14619 ft 324 kts 353°
2026-05-04 10:30 40.47524 -8.40726 14275 ft 325 kts 353°
2026-05-04 10:30 40.49790 -8.40943 13920 ft 325 kts 353°
2026-05-04 10:31 40.52033 -8.41158 13535 ft 323 kts 353°
2026-05-04 10:31 40.54263 -8.41373 13156 ft 320 kts 353°
2026-05-04 10:32 40.67144 -8.42615 11373 ft 295 kts 353°
2026-05-04 10:33 40.69163 -8.42810 11247 ft 286 kts 353°
2026-05-04 10:33 40.71109 -8.42999 11163 ft 275 kts 353°
2026-05-04 10:33 40.72934 -8.43618 10838 ft 270 kts 332°
2026-05-04 10:33 40.74614 -8.44770 10414 ft 273 kts 332°
2026-05-04 10:34 40.76299 -8.45908 9980 ft 277 kts 332°
2026-05-04 10:34 40.77987 -8.47059 9500 ft 271 kts 332°
2026-05-04 10:34 40.79630 -8.48187 9105 ft 264 kts 332°
2026-05-04 10:34 40.81243 -8.49298 8714 ft 257 kts 332°
2026-05-04 10:35 40.82832 -8.50394 8366 ft 258 kts 332°
2026-05-04 10:35 40.84410 -8.51484 8004 ft 259 kts 332°
2026-05-04 10:35 40.86018 -8.52597 7651 ft 262 kts 332°
2026-05-04 10:35 40.87655 -8.53728 7270 ft 267 kts 332°
2026-05-04 10:36 40.89321 -8.54886 6873 ft 274 kts 332°
2026-05-04 10:36 40.91034 -8.56032 6482 ft 282 kts 334°
2026-05-04 10:36 40.92789 -8.57249 6027 ft 288 kts 331°
2026-05-04 10:36 40.94564 -8.58490 5637 ft 286 kts 332°
2026-05-04 10:37 40.96309 -8.59708 5252 ft 278 kts 332°
2026-05-04 10:37 40.97977 -8.60870 4983 ft 263 kts 334°
2026-05-04 10:37 40.99682 -8.61546 4704 ft 251 kts 348°
2026-05-04 10:37 41.01343 -8.61973 4421 ft 240 kts 348°
2026-05-04 10:39 41.09842 -8.64211 3013 ft 173 kts 348°
2026-05-04 10:39 41.11004 -8.64515 2855 ft 172 kts 348°
2026-05-04 10:39 41.12174 -8.64819 2545 ft 172 kts 348°
2026-05-04 10:40 41.13353 -8.65126 2231 ft 169 kts 347°
2026-05-04 10:40 41.14478 -8.65418 1915 ft 161 kts 348°
2026-05-04 10:40 41.15571 -8.65706 1506 ft 159 kts 348°
2026-05-04 10:40 41.16646 -8.65985 1142 ft 157 kts 349°
2026-05-04 10:41 41.17638 -8.66232 1171 ft 138 kts 346°
2026-05-04 10:41 41.18573 -8.66504 1178 ft 138 kts 346°
2026-05-04 10:41 41.19511 -8.66767 1176 ft 136 kts 346°
2026-05-04 10:41 41.20448 -8.66991 956 ft 141 kts 348°
2026-05-04 10:42 41.21373 -8.67232 702 ft 135 kts 348°
2026-05-04 10:42 41.22318 -8.67477 506 ft 138 kts 346°
2026-05-04 10:42 41.23247 -8.67713 300 ft 134 kts 346°
2026-05-04 10:42 41.24092 -8.67939 235 ft 108 kts 348°
2026-05-04 10:43 41.24626 -8.68076 240 ft 54 kts 348°
2026-05-04 10:44 41.24860 -8.67895 237 ft 21 kts 155°
2026-05-04 10:45 41.24725 -8.67816 238 ft 22 kts 168°
2026-05-04 10:45 41.24584 -8.67779 238 ft 10 kts 168°
2026-05-04 10:45 41.24556 -8.67772 238 ft 5 kts 169°
2026-05-04 10:45 41.24514 -8.67761 238 ft 7 kts 169°
2026-05-04 10:46 41.24456 -8.67746 238 ft 10 kts 169°
2026-05-04 10:46 41.24384 -8.67727 237 ft 12 kts 169°
2026-05-04 10:46 41.24300 -8.67692 237 ft 14 kts 144°
2026-05-04 10:46 41.24276 -8.67659 237 ft 1 kts 127°
2026-05-04 10:47 41.24276 -8.67658 237 ft 0 kts 127°
2026-05-04 10:47 41.24275 -8.67658 237 ft 1 kts 127°
2026-05-04 10:47 41.24268 -8.67644 237 ft 3 kts 127°
2026-05-04 10:49 41.23710 -8.67356 237 ft 6 kts 89°
2026-05-04 10:49 41.23728 -8.67283 237 ft 5 kts 69°
2026-05-04 10:50 41.23732 -8.67268 237 ft 0 kts 69°